Time,TemperatureF,DewpointF,PressureIn,WindDirection,WindDirectionDegrees,WindSpeedMPH,WindSpeedGustMPH,Humidity,HourlyPrecipIn,Conditions,Clouds,dailyrainin,SoftwareType,DateUTC
2013-03-14 00:04:00,69.4,68.8,29.46,East,90,19.6,19.6,98,0.00,CLR,,0.00,WeatherDisplay:10.37,2013-03-13 22:04:00,
2013-03-14 00:09:00,69.4,68.8,29.46,East,90,18.4,18.4,98,0.00,CLR,,0.00,WeatherDisplay:10.37,2013-03-13 22:09:00,
2013-03-14 00:14:00,69.4,68.8,29.46,East,90,15.0,15.0,98,0.00,CLR,,0.00,WeatherDisplay:10.37,2013-03-13 22:14:00,
2013-03-14 00:19:00,69.3,68.7,29.46,East,90,16.1,16.1,98,0.00,CLR,,0.00,WeatherDisplay:10.37,2013-03-13 22:19:00,
2013-03-14 00:24:00,69.3,68.7,29.46,ENE,68,16.0,16.0,98,0.00,CLR,,0.00,WeatherDisplay:10.37,2013-03-13 22:24:00,
2013-03-14 00:29:00,69.1,68.5,29.46,ENE,68,10.4,10.5,98,0.00,CLR,,0.00,WeatherDisplay:10.37,2013-03-13 22:29:00,
2013-03-14 00:34:00,69.3,68.7,29.46,SSE,158,15.0,15.0,98,0.00,CLR,,0.00,WeatherDisplay:10.37,2013-03-13 22:34:00,
2013-03-14 00:39:00,69.3,68.7,29.46,ESE,112,13.8,13.8,98,0.00,CLR,,0.00,WeatherDisplay:10.37,2013-03-13 22:39:00,
2013-03-14 00:44:00,69.4,68.8,29.46,ESE,112,16.1,16.1,98,0.00,CLR,,0.00,WeatherDisplay:10.37,2013-03-13 22:44:00,
2013-03-14 00:49:00,69.3,68.7,29.46,East,90,12.7,12.7,98,0.00,CLR,,0.00,WeatherDisplay:10.37,2013-03-13 22:49:00,
2013-03-14 00:54:00,69.3,68.7,29.45,East,90,17.3,17.3,98,0.00,CLR,,0.00,WeatherDisplay:10.37,2013-03-13 22:54:00,
2013-03-14 00:59:00,69.3,68.7,29.45,ESE,112,17.3,17.3,98,0.00,CLR,,0.00,WeatherDisplay:10.37,2013-03-13 22:59:00,
2013-03-14 01:04:00,69.1,68.5,29.45,ESE,112,14.0,14.0,98,0.00,CLR,,0.00,WeatherDisplay:10.37,2013-03-13 23:04:00,
2013-03-14 01:09:00,69.1,68.5,29.45,ESE,112,14.5,14.5,98,0.00,CLR,,0.00,WeatherDisplay:10.37,2013-03-13 23:09:00,
2013-03-14 01:14:00,69.1,68.5,29.45,ENE,68,13.8,13.8,98,0.00,CLR,,0.00,WeatherDisplay:10.37,2013-03-13 23:14:00,
2013-03-14 01:19:00,69.1,68.5,29.45,ESE,112,18.1,18.1,98,0.00,CLR,,0.00,WeatherDisplay:10.37,2013-03-13 23:19:00,
2013-03-14 01:24:00,69.1,68.5,29.45,East,90,12.7,12.7,98,0.00,CLR,,0.00,WeatherDisplay:10.37,2013-03-13 23:24:00,
2013-03-14 01:29:00,69.1,68.5,29.45,ESE,112,11.5,11.5,98,0.00,CLR,,0.00,WeatherDisplay:10.37,2013-03-13 23:29:00,
2013-03-14 01:34:00,68.9,68.3,29.45,NE,45,13.8,13.8,98,0.00,CLR,,0.00,WeatherDisplay:10.37,2013-03-13 23:34:00,
2013-03-14 01:39:00,68.9,68.3,29.44,SE,135,13.8,13.8,98,0.00,CLR,,0.00,WeatherDisplay:10.37,2013-03-13 23:39:00,
2013-03-14 01:44:00,68.9,68.3,29.44,ESE,112,17.3,17.3,98,0.00,CLR,,0.00,WeatherDisplay:10.37,2013-03-13 23:44:00,
2013-03-14 01:49:00,68.9,68.3,29.44,East,90,16.1,16.1,98,0.00,CLR,,0.00,WeatherDisplay:10.37,2013-03-13 23:49:00,
2013-03-14 01:54:00,69.1,68.5,29.44,East,90,13.8,13.8,98,0.00,CLR,,0.00,WeatherDisplay:10.37,2013-03-13 23:54:00,
2013-03-14 01:59:00,68.9,68.3,29.44,ENE,68,15.5,15.5,98,0.00,CLR,,0.00,WeatherDisplay:10.37,2013-03-13 23:59:00,
2013-03-14 02:04:00,68.9,68.3,29.44,East,90,12.7,12.7,98,0.00,CLR,,0.00,WeatherDisplay:10.37,2013-03-14 00:04:00,
2013-03-14 02:09:00,68.9,68.3,29.44,East,90,10.4,10.4,98,0.00,CLR,,0.00,WeatherDisplay:10.37,2013-03-14 00:09:00,
2013-03-14 02:14:00,68.7,68.1,29.44,East,90,15.0,15.0,98,0.00,CLR,,0.00,WeatherDisplay:10.37,2013-03-14 00:14:00,
2013-03-14 02:19:00,68.9,68.3,29.43,East,90,17.3,17.3,98,0.00,CLR,,0.00,WeatherDisplay:10.37,2013-03-14 00:19:00,
2013-03-14 02:24:00,68.9,68.3,29.43,East,90,10.4,10.8,98,0.00,CLR,,0.00,WeatherDisplay:10.37,2013-03-14 00:24:00,
2013-03-14 02:29:00,68.9,68.3,29.43,ESE,112,13.8,13.8,98,0.00,CLR,,0.00,WeatherDisplay:10.37,2013-03-14 00:29:00,
2013-03-14 02:34:00,68.9,68.3,29.43,ENE,68,7.3,7.3,98,0.00,CLR,,0.00,WeatherDisplay:10.37,2013-03-14 00:34:00,
2013-03-14 02:39:00,68.9,68.3,29.43,ESE,112,16.1,16.1,98,0.00,CLR,,0.00,WeatherDisplay:10.37,2013-03-14 00:39:00,
2013-03-14 02:44:00,69.1,68.5,29.42,ENE,68,13.8,13.8,98,0.00,CLR,,0.00,WeatherDisplay:10.37,2013-03-14 00:44:00,
2013-03-14 02:49:00,68.9,68.3,29.42,ESE,112,15.0,15.0,98,0.00,CLR,,0.00,WeatherDisplay:10.37,2013-03-14 00:49:00,
2013-03-14 02:54:00,68.7,68.1,29.42,ESE,112,15.0,15.0,98,0.00,CLR,,0.00,WeatherDisplay:10.37,2013-03-14 00:54:00,
2013-03-14 02:59:00,68.7,68.1,29.42,East,90,15.0,15.0,98,0.00,CLR,,0.00,WeatherDisplay:10.37,2013-03-14 00:59:00,
2013-03-14 03:04:00,68.7,68.1,29.42,ESE,112,19.6,19.6,98,0.00,CLR,,0.00,WeatherDisplay:10.37,2013-03-14 01:04:00,
2013-03-14 03:09:00,68.7,68.1,29.42,East,90,12.7,12.9,98,0.00,CLR,,0.00,WeatherDisplay:10.37,2013-03-14 01:09:00,
2013-03-14 03:14:00,68.9,68.3,29.42,SE,135,16.1,16.1,98,0.00,CLR,,0.00,WeatherDisplay:10.37,2013-03-14 01:14:00,
2013-03-14 03:19:00,68.7,68.1,29.42,East,90,13.8,13.8,98,0.00,CLR,,0.00,WeatherDisplay:10.37,2013-03-14 01:19:00,
2013-03-14 03:24:00,68.5,67.9,29.42,ESE,112,13.8,13.8,98,0.00,CLR,,0.00,WeatherDisplay:10.37,2013-03-14 01:24:00,
2013-03-14 03:29:00,68.5,67.9,29.41,ESE,112,16.0,16.0,98,0.00,CLR,,0.00,WeatherDisplay:10.37,2013-03-14 01:29:00,
2013-03-14 03:34:00,68.5,67.9,29.41,ESE,112,9.2,9.6,98,0.00,CLR,,0.00,WeatherDisplay:10.37,2013-03-14 01:34:00,
2013-03-14 03:39:00,68.4,67.8,29.41,ENE,68,9.2,9.2,98,0.00,CLR,,0.00,WeatherDisplay:10.37,2013-03-14 01:39:00,
2013-03-14 03:44:00,68.0,67.4,29.41,ESE,112,15.0,15.0,98,0.00,CLR,,0.00,WeatherDisplay:10.37,2013-03-14 01:44:00,
2013-03-14 03:49:00,68.2,67.6,29.41,SE,135,15.0,15.0,98,0.00,CLR,,0.00,WeatherDisplay:10.37,2013-03-14 01:49:00,
2013-03-14 03:54:00,68.2,67.6,29.41,ESE,112,13.0,13.0,98,0.00,CLR,,0.00,WeatherDisplay:10.37,2013-03-14 01:54:00,
2013-03-14 03:59:00,68.2,67.6,29.41,ESE,112,12.4,12.4,98,0.00,CLR,,0.00,WeatherDisplay:10.37,2013-03-14 01:59:00,
2013-03-14 04:04:00,68.2,67.6,29.40,ESE,112,9.9,9.9,98,0.00,CLR,,0.00,WeatherDisplay:10.37,2013-03-14 02:04:00,
2013-03-14 04:09:00,68.2,67.6,29.40,ESE,112,11.5,11.5,98,0.00,CLR,,0.00,WeatherDisplay:10.37,2013-03-14 02:09:00,
2013-03-14 04:14:00,68.2,67.6,29.40,East,90,13.8,13.8,98,0.00,CLR,,0.00,WeatherDisplay:10.37,2013-03-14 02:14:00,
2013-03-14 04:19:00,68.2,67.6,29.41,SE,135,11.5,11.5,98,0.00,CLR,,0.00,WeatherDisplay:10.37,2013-03-14 02:19:00,
2013-03-14 04:24:00,68.4,67.8,29.41,NNW,338,13.8,13.8,98,0.00,CLR,,0.00,WeatherDisplay:10.37,2013-03-14 02:24:00,
2013-03-14 04:29:00,68.2,67.6,29.41,ESE,112,15.0,15.0,98,0.00,CLR,,0.00,WeatherDisplay:10.37,2013-03-14 02:29:00,
2013-03-14 04:34:00,68.2,67.6,29.41,ESE,112,15.0,15.0,98,0.00,CLR,,0.00,WeatherDisplay:10.37,2013-03-14 02:34:00,
2013-03-14 04:39:00,68.2,67.6,29.41,East,90,11.5,11.5,98,0.00,CLR,,0.00,WeatherDisplay:10.37,2013-03-14 02:39:00,
2013-03-14 04:44:00,68.2,67.6,29.41,East,90,12.7,12.7,98,0.00,CLR,,0.00,WeatherDisplay:10.37,2013-03-14 02:44:00,
2013-03-14 04:49:00,68.2,67.6,29.41,NE,45,10.4,10.4,98,0.00,CLR,,0.00,WeatherDisplay:10.37,2013-03-14 02:49:00,
2013-03-14 04:54:00,68.4,67.8,29.40,ENE,68,9.9,9.9,98,0.00,CLR,,0.00,WeatherDisplay:10.37,2013-03-14 02:54:00,
2013-03-14 04:59:00,68.4,67.8,29.40,ENE,68,10.4,10.4,98,0.00,CLR,,0.00,WeatherDisplay:10.37,2013-03-14 02:59:00,
2013-03-14 05:04:00,68.4,67.8,29.40,NNE,22,8.8,8.8,98,0.00,CLR,,0.00,WeatherDisplay:10.37,2013-03-14 03:04:00,
2013-03-14 05:09:00,68.4,67.8,29.40,NE,45,12.4,12.4,98,0.00,CLR,,0.00,WeatherDisplay:10.37,2013-03-14 03:09:00,
2013-03-14 05:14:00,68.4,67.8,29.40,ESE,112,9.2,9.2,98,0.00,CLR,,0.00,WeatherDisplay:10.37,2013-03-14 03:14:00,
2013-03-14 05:19:00,68.4,67.8,29.40,ENE,68,14.0,14.0,98,0.00,CLR,,0.00,WeatherDisplay:10.37,2013-03-14 03:19:00,
2013-03-14 05:24:00,68.2,67.6,29.40,ESE,112,8.8,8.8,98,0.00,CLR,,0.00,WeatherDisplay:10.37,2013-03-14 03:24:00,
2013-03-14 05:29:00,68.2,67.6,29.40,ESE,112,10.4,10.4,98,0.00,CLR,,0.00,WeatherDisplay:10.37,2013-03-14 03:29:00,
2013-03-14 05:34:00,68.2,67.6,29.40,SE,135,10.4,10.4,98,0.00,CLR,,0.00,WeatherDisplay:10.37,2013-03-14 03:34:00,
2013-03-14 05:39:00,68.2,67.6,29.40,East,90,9.2,9.2,98,0.00,CLR,,0.00,WeatherDisplay:10.37,2013-03-14 03:39:00,
2013-03-14 05:44:00,68.0,67.4,29.40,ENE,68,12.7,12.7,98,0.00,CLR,,0.00,WeatherDisplay:10.37,2013-03-14 03:44:00,
2013-03-14 05:49:00,68.0,67.4,29.40,ESE,112,9.2,9.2,98,0.00,CLR,,0.00,WeatherDisplay:10.37,2013-03-14 03:49:00,
2013-03-14 05:54:00,68.0,67.4,29.40,NE,45,11.5,11.5,98,0.00,CLR,,0.00,WeatherDisplay:10.37,2013-03-14 03:54:00,
2013-03-14 05:59:00,68.0,67.4,29.40,NNE,22,6.3,6.3,98,0.00,CLR,,0.00,WeatherDisplay:10.37,2013-03-14 03:59:00,
2013-03-14 06:00:00,68.0,67.4,29.93,NNE,22,7.8,-999.0,98,-99.99,,,0.00,Acu-Link.com,2013-03-14 04:00:00,
2013-03-14 06:05:00,68.0,67.4,29.40,ESE,112,9.2,9.2,98,0.00,CLR,,0.00,WeatherDisplay:10.37,2013-03-14 04:05:00,
2013-03-14 06:10:00,68.0,67.4,29.40,NE,45,9.2,9.2,98,0.00,CLR,,0.00,WeatherDisplay:10.37,2013-03-14 04:10:00,
2013-03-14 06:15:00,68.0,67.4,29.39,East,90,10.4,10.4,98,0.00,CLR,,0.00,WeatherDisplay:10.37,2013-03-14 04:15:00,
2013-03-14 06:20:00,68.0,67.4,29.39,East,90,10.4,10.4,98,0.00,CLR,,0.00,WeatherDisplay:10.37,2013-03-14 04:20:00,
2013-03-14 06:25:00,68.0,67.4,29.39,NE,45,9.2,9.2,98,0.00,CLR,,0.00,WeatherDisplay:10.37,2013-03-14 04:25:00,
2013-03-14 06:30:00,68.0,67.4,29.39,ENE,68,10.4,10.4,98,0.00,CLR,,0.00,WeatherDisplay:10.37,2013-03-14 04:30:00,
2013-03-14 06:35:00,68.0,67.4,29.39,ESE,112,9.2,9.2,98,0.00,CLR,,0.00,WeatherDisplay:10.37,2013-03-14 04:35:00,
2013-03-14 06:40:00,68.0,67.4,29.40,ENE,68,15.0,15.0,98,0.00,CLR,,0.00,WeatherDisplay:10.37,2013-03-14 04:40:00,
2013-03-14 06:45:00,67.8,67.2,29.40,East,90,9.2,9.2,98,0.00,CLR,,0.00,WeatherDisplay:10.37,2013-03-14 04:45:00,
2013-03-14 06:50:00,67.8,67.2,29.40,East,90,11.5,11.5,98,0.00,CLR,,0.00,WeatherDisplay:10.37,2013-03-14 04:50:00,
2013-03-14 06:55:00,67.8,67.2,29.39,NE,45,10.4,10.4,98,0.00,CLR,,0.00,WeatherDisplay:10.37,2013-03-14 04:55:00,
2013-03-14 07:00:00,67.8,67.2,29.39,ESE,112,8.8,8.8,98,0.00,CLR,,0.00,WeatherDisplay:10.37,2013-03-14 05:00:00,
2013-03-14 07:05:00,67.8,67.2,29.39,SE,135,6.9,6.9,98,0.00,CLR,,0.00,WeatherDisplay:10.37,2013-03-14 05:05:00,
2013-03-14 07:10:00,67.8,67.2,29.39,ENE,68,10.4,10.4,98,0.00,CLR,,0.00,WeatherDisplay:10.37,2013-03-14 05:10:00,
2013-03-14 07:15:00,67.8,67.2,29.39,ESE,112,8.1,8.1,98,0.00,CLR,,0.00,WeatherDisplay:10.37,2013-03-14 05:15:00,
2013-03-14 07:20:00,67.5,66.9,29.39,ESE,112,9.2,9.2,98,0.00,CLR,,0.00,WeatherDisplay:10.37,2013-03-14 05:20:00,
2013-03-14 07:25:00,67.8,67.2,29.39,NNE,22,9.9,9.9,98,0.00,CLR,,0.00,WeatherDisplay:10.37,2013-03-14 05:25:00,
2013-03-14 07:30:00,67.8,67.2,29.39,East,90,8.1,8.1,98,0.00,CLR,,0.00,WeatherDisplay:10.37,2013-03-14 05:30:00,
2013-03-14 07:35:00,67.8,67.2,29.39,East,90,7.3,7.3,98,0.00,CLR,,0.00,WeatherDisplay:10.37,2013-03-14 05:35:00,
2013-03-14 07:40:00,67.8,67.2,29.39,ENE,68,6.9,6.9,98,0.00,CLR,,0.00,WeatherDisplay:10.37,2013-03-14 05:40:00,
2013-03-14 07:45:00,67.8,67.2,29.39,East,90,9.4,9.4,98,0.00,CLR,,0.00,WeatherDisplay:10.37,2013-03-14 05:45:00,
2013-03-14 07:50:00,68.0,67.4,29.39,East,90,5.8,5.8,98,0.00,CLR,,0.00,WeatherDisplay:10.37,2013-03-14 05:50:00,
2013-03-14 07:55:00,68.0,67.4,29.39,East,90,6.9,6.9,98,0.00,CLR,,0.00,WeatherDisplay:10.37,2013-03-14 05:55:00,
2013-03-14 08:00:00,68.0,67.4,29.39,ENE,68,8.1,8.1,98,0.00,CLR,,0.00,WeatherDisplay:10.37,2013-03-14 06:00:00,
2013-03-14 08:05:00,68.0,67.4,29.39,East,90,5.8,5.8,98,0.00,CLR,,0.00,WeatherDisplay:10.37,2013-03-14 06:05:00,
2013-03-14 08:10:00,68.2,67.6,29.39,East,90,8.1,8.1,98,0.00,CLR,,0.00,WeatherDisplay:10.37,2013-03-14 06:10:00,
2013-03-14 08:15:00,68.0,67.4,29.38,East,90,10.4,10.4,98,0.00,CLR,,0.00,WeatherDisplay:10.37,2013-03-14 06:15:00,
2013-03-14 08:20:00,68.2,67.6,29.38,ESE,112,5.8,5.8,98,0.00,CLR,,0.00,WeatherDisplay:10.37,2013-03-14 06:20:00,
2013-03-14 08:25:00,68.0,67.4,29.38,ESE,112,10.4,10.4,98,0.00,CLR,,0.00,WeatherDisplay:10.37,2013-03-14 06:25:00,
2013-03-14 08:31:00,68.0,67.4,29.39,ENE,68,8.1,8.1,98,0.00,CLR,,0.00,WeatherDisplay:10.37,2013-03-14 06:31:00,
2013-03-14 08:36:00,68.2,67.6,29.39,ESE,112,8.1,8.1,98,0.00,CLR,,0.00,WeatherDisplay:10.37,2013-03-14 06:36:00,
2013-03-14 08:41:00,68.2,67.6,29.39,ESE,112,9.2,9.2,98,0.00,CLR,,0.00,WeatherDisplay:10.37,2013-03-14 06:41:00,
2013-03-14 08:46:00,68.2,67.6,29.39,ESE,112,10.4,10.4,98,0.00,CLR,,0.00,WeatherDisplay:10.37,2013-03-14 06:46:00,
2013-03-14 08:51:00,68.5,67.9,29.39,NE,45,10.4,10.4,98,0.00,CLR,,0.00,WeatherDisplay:10.37,2013-03-14 06:51:00,
2013-03-14 08:56:00,68.5,67.9,29.39,East,90,10.4,10.4,98,0.00,CLR,,0.00,WeatherDisplay:10.37,2013-03-14 06:56:00,
2013-03-14 09:01:00,68.7,68.1,29.39,ESE,112,11.5,11.5,98,0.00,CLR,,0.00,WeatherDisplay:10.37,2013-03-14 07:01:00,
2013-03-14 09:06:00,68.9,68.3,29.38,ESE,112,10.4,10.4,98,0.00,CLR,,0.00,WeatherDisplay:10.37,2013-03-14 07:06:00,
2013-03-14 09:11:00,68.7,68.1,29.38,ESE,112,12.7,12.7,98,0.00,CLR,,0.00,WeatherDisplay:10.37,2013-03-14 07:11:00,
2013-03-14 09:16:00,69.1,68.5,29.38,East,90,11.5,11.5,98,0.00,CLR,,0.00,WeatherDisplay:10.37,2013-03-14 07:16:00,
2013-03-14 09:21:00,69.4,68.8,29.38,East,90,10.4,10.4,98,0.00,CLR,,0.00,WeatherDisplay:10.37,2013-03-14 07:21:00,
2013-03-14 09:26:00,69.6,69.0,29.38,ESE,112,9.2,9.2,98,0.00,CLR,,0.00,WeatherDisplay:10.37,2013-03-14 07:26:00,
2013-03-14 09:31:00,70.0,69.4,29.38,East,90,9.2,9.2,98,0.00,CLR,,0.00,WeatherDisplay:10.37,2013-03-14 07:31:00,
2013-03-14 09:36:00,69.8,69.2,29.38,ESE,112,10.4,10.4,98,0.00,CLR,,0.00,WeatherDisplay:10.37,2013-03-14 07:36:00,
2013-03-14 09:41:00,69.8,69.2,29.38,ENE,68,11.5,11.5,98,0.00,CLR,,0.00,WeatherDisplay:10.37,2013-03-14 07:41:00,
2013-03-14 09:46:00,69.6,69.0,29.38,ENE,68,9.4,9.4,98,0.00,CLR,,0.00,WeatherDisplay:10.37,2013-03-14 07:46:00,
2013-03-14 09:51:00,70.2,69.6,29.38,East,90,9.4,9.8,98,0.00,CLR,,0.00,WeatherDisplay:10.37,2013-03-14 07:51:00,
2013-03-14 09:56:00,70.5,69.9,29.38,ESE,112,10.4,10.4,98,0.00,CLR,,0.00,WeatherDisplay:10.37,2013-03-14 07:56:00,
2013-03-14 10:01:00,70.9,70.3,29.38,SSE,158,10.4,10.4,98,0.00,CLR,,0.00,WeatherDisplay:10.37,2013-03-14 08:01:00,
2013-03-14 10:06:00,70.7,70.1,29.37,ESE,112,11.9,11.9,98,0.00,CLR,,0.00,WeatherDisplay:10.37,2013-03-14 08:06:00,
2013-03-14 10:11:00,71.4,70.8,29.37,East,90,10.9,10.9,98,0.00,CLR,,0.00,WeatherDisplay:10.37,2013-03-14 08:11:00,
2013-03-14 10:16:00,71.8,71.2,29.37,ESE,112,11.5,11.5,98,0.00,CLR,,0.00,WeatherDisplay:10.37,2013-03-14 08:16:00,
2013-03-14 10:21:00,72.7,72.1,29.37,ESE,112,12.7,12.7,98,0.00,CLR,,0.00,WeatherDisplay:10.37,2013-03-14 08:21:00,
2013-03-14 10:26:00,73.4,72.8,29.37,NE,45,9.4,9.4,98,0.00,CLR,,0.00,WeatherDisplay:10.37,2013-03-14 08:26:00,
2013-03-14 10:31:00,73.6,73.0,29.36,East,90,14.0,14.0,98,0.00,CLR,,0.00,WeatherDisplay:10.37,2013-03-14 08:31:00,
2013-03-14 10:37:00,73.8,73.2,29.36,ESE,112,13.8,13.8,98,0.00,CLR,,0.00,WeatherDisplay:10.37,2013-03-14 08:37:00,
2013-03-14 10:42:00,73.9,73.3,29.36,NE,45,11.5,11.5,98,0.00,CLR,,0.00,WeatherDisplay:10.37,2013-03-14 08:42:00,
2013-03-14 10:47:00,73.4,72.8,29.90,East,90,7.2,-999.0,98,-99.99,,,0.00,Acu-Link.com,2013-03-14 08:47:00,
2013-03-14 10:52:00,74.5,73.9,29.36,ENE,68,11.5,11.5,98,0.00,CLR,,0.00,WeatherDisplay:10.37,2013-03-14 08:52:00,
2013-03-14 10:57:00,74.8,74.2,29.36,East,90,11.5,11.5,98,0.00,CLR,,0.00,WeatherDisplay:10.37,2013-03-14 08:57:00,
2013-03-14 11:02:00,75.4,74.8,29.36,East,90,10.4,10.4,98,0.00,CLR,,0.00,WeatherDisplay:10.37,2013-03-14 09:02:00,
2013-03-14 11:07:00,74.7,74.1,29.35,NE,45,12.7,12.7,98,0.00,CLR,,0.00,WeatherDisplay:10.37,2013-03-14 09:07:00,
2013-03-14 11:12:00,74.1,73.5,29.35,East,90,12.4,12.4,98,0.00,CLR,,0.00,WeatherDisplay:10.37,2013-03-14 09:12:00,
2013-03-14 11:17:00,74.7,74.1,29.34,NE,45,12.4,12.4,98,0.00,CLR,,0.00,WeatherDisplay:10.37,2013-03-14 09:17:00,
2013-03-14 11:22:00,74.3,73.7,29.34,NE,45,10.4,10.4,98,0.00,CLR,,0.00,WeatherDisplay:10.37,2013-03-14 09:22:00,
2013-03-14 11:27:00,74.5,73.9,29.34,ENE,68,10.4,10.4,98,0.00,CLR,,0.00,WeatherDisplay:10.37,2013-03-14 09:27:00,
2013-03-14 11:32:00,75.2,74.6,29.88,East,90,8.3,-999.0,98,-99.99,,,0.00,Acu-Link.com,2013-03-14 09:32:00,
2013-03-14 11:37:00,74.7,74.1,29.34,East,90,16.1,16.1,98,0.00,CLR,,0.00,WeatherDisplay:10.37,2013-03-14 09:37:00,
2013-03-14 11:42:00,74.5,73.9,29.34,ESE,112,13.8,13.8,98,0.00,CLR,,0.00,WeatherDisplay:10.37,2013-03-14 09:42:00,
2013-03-14 11:47:00,74.7,74.1,29.34,East,90,12.7,12.7,98,0.00,CLR,,0.00,WeatherDisplay:10.37,2013-03-14 09:47:00,
2013-03-14 11:52:00,75.2,74.6,29.33,East,90,11.5,11.5,98,0.00,CLR,,0.00,WeatherDisplay:10.37,2013-03-14 09:52:00,
2013-03-14 11:57:00,75.6,75.0,29.33,ESE,112,15.0,15.0,98,0.00,CLR,,0.00,WeatherDisplay:10.37,2013-03-14 09:57:00,
2013-03-14 12:03:00,75.0,74.4,29.33,East,90,13.8,13.8,98,0.00,CLR,,0.00,WeatherDisplay:10.37,2013-03-14 10:03:00,
2013-03-14 12:08:00,75.0,74.4,29.33,ENE,68,13.8,13.8,98,0.00,CLR,,0.00,WeatherDisplay:10.37,2013-03-14 10:08:00,
2013-03-14 12:13:00,75.9,75.3,29.33,ESE,112,15.0,15.0,98,0.00,CLR,,0.00,WeatherDisplay:10.37,2013-03-14 10:13:00,
2013-03-14 12:18:00,76.5,75.9,29.33,SSE,158,13.8,13.8,98,0.00,CLR,,0.00,WeatherDisplay:10.37,2013-03-14 10:18:00,
2013-03-14 12:23:00,75.7,75.1,29.33,SE,135,15.0,15.0,98,0.00,CLR,,0.00,WeatherDisplay:10.37,2013-03-14 10:23:00,
2013-03-14 12:28:00,75.4,74.8,29.33,East,90,15.0,15.0,98,0.00,CLR,,0.00,WeatherDisplay:10.37,2013-03-14 10:28:00,
2013-03-14 12:33:00,75.6,75.0,29.32,East,90,18.6,18.6,98,0.00,CLR,,0.00,WeatherDisplay:10.37,2013-03-14 10:33:00,
2013-03-14 12:38:00,74.8,74.2,29.32,ESE,112,16.1,16.1,98,0.00,CLR,,0.00,WeatherDisplay:10.37,2013-03-14 10:38:00,
2013-03-14 12:43:00,75.4,74.8,29.32,ESE,112,17.1,17.1,98,0.00,CLR,,0.00,WeatherDisplay:10.37,2013-03-14 10:43:00,
2013-03-14 12:48:00,76.6,76.0,29.32,East,90,12.7,12.7,98,0.00,CLR,,0.00,WeatherDisplay:10.37,2013-03-14 10:48:00,
2013-03-14 12:53:00,76.8,76.2,29.31,ESE,112,13.5,13.5,98,0.00,CLR,,0.00,WeatherDisplay:10.37,2013-03-14 10:53:00,
2013-03-14 12:58:00,76.1,75.5,29.31,ESE,112,16.1,16.1,98,0.00,CLR,,0.00,WeatherDisplay:10.37,2013-03-14 10:58:00,
2013-03-14 13:03:00,76.6,76.0,29.31,SE,135,14.0,14.0,98,0.00,CLR,,0.00,WeatherDisplay:10.37,2013-03-14 11:03:00,
2013-03-14 13:08:00,76.8,76.2,29.31,NE,45,14.0,14.0,98,0.00,CLR,,0.00,WeatherDisplay:10.37,2013-03-14 11:08:00,
2013-03-14 13:13:00,76.3,75.7,29.31,NE,45,15.0,15.0,98,0.00,CLR,,0.00,WeatherDisplay:10.37,2013-03-14 11:13:00,
2013-03-14 13:18:00,76.6,76.0,29.30,ESE,112,15.5,15.5,98,0.00,CLR,,0.00,WeatherDisplay:10.37,2013-03-14 11:18:00,
2013-03-14 13:23:00,76.6,76.0,29.30,East,90,12.7,12.7,98,0.00,CLR,,0.00,WeatherDisplay:10.37,2013-03-14 11:23:00,
2013-03-14 13:28:00,75.6,75.0,29.30,ESE,112,16.1,16.1,98,0.00,CLR,,0.00,WeatherDisplay:10.37,2013-03-14 11:28:00,
2013-03-14 13:33:00,76.5,75.9,29.30,East,90,12.4,12.4,98,0.00,CLR,,0.00,WeatherDisplay:10.37,2013-03-14 11:33:00,
2013-03-14 13:38:00,75.4,74.8,29.30,East,90,16.1,16.9,98,0.00,CLR,,0.00,WeatherDisplay:10.37,2013-03-14 11:38:00,
2013-03-14 13:43:00,74.8,74.2,29.30,ESE,112,20.7,20.7,98,0.00,CLR,,0.00,WeatherDisplay:10.37,2013-03-14 11:43:00,
2013-03-14 13:48:00,74.5,73.9,29.30,NE,45,16.1,16.1,98,0.00,CLR,,0.00,WeatherDisplay:10.37,2013-03-14 11:48:00,
2013-03-14 13:53:00,75.2,74.6,29.28,East,90,17.3,17.3,98,0.00,CLR,,0.00,WeatherDisplay:10.37,2013-03-14 11:53:00,
2013-03-14 13:58:00,75.9,75.3,29.28,ENE,68,14.5,14.7,98,0.00,CLR,,0.00,WeatherDisplay:10.37,2013-03-14 11:58:00,
2013-03-14 14:03:00,76.1,75.5,29.28,ESE,112,19.6,19.6,98,0.00,CLR,,0.00,WeatherDisplay:10.37,2013-03-14 12:03:00,
2013-03-14 14:08:00,75.2,74.6,29.28,ENE,68,18.4,18.4,98,0.00,CLR,,0.00,WeatherDisplay:10.37,2013-03-14 12:08:00,
2013-03-14 14:13:00,75.6,75.0,29.28,ESE,112,20.7,20.7,98,0.00,CLR,,0.00,WeatherDisplay:10.37,2013-03-14 12:13:00,
2013-03-14 14:18:00,75.2,74.6,29.27,ESE,112,18.6,18.6,98,0.00,CLR,,0.00,WeatherDisplay:10.37,2013-03-14 12:18:00,
2013-03-14 14:23:00,73.8,73.2,29.27,ESE,112,21.9,21.9,98,0.00,CLR,,0.00,WeatherDisplay:10.37,2013-03-14 12:23:00,
2013-03-14 14:28:00,74.3,73.7,29.27,East,90,20.7,20.7,98,0.00,CLR,,0.00,WeatherDisplay:10.37,2013-03-14 12:28:00,
2013-03-14 14:33:00,73.4,72.8,29.81,East,90,15.0,-999.0,98,-99.99,,,0.00,Acu-Link.com,2013-03-14 12:33:00,
2013-03-14 14:38:00,74.8,74.2,29.27,NE,45,15.0,15.0,98,0.00,CLR,,0.00,WeatherDisplay:10.37,2013-03-14 12:38:00,
2013-03-14 14:43:00,75.4,74.8,29.26,NE,45,16.1,16.1,98,0.00,CLR,,0.00,WeatherDisplay:10.37,2013-03-14 12:43:00,
2013-03-14 14:48:00,75.2,74.6,29.26,ESE,112,17.3,17.3,98,0.00,CLR,,0.00,WeatherDisplay:10.37,2013-03-14 12:48:00,
2013-03-14 14:53:00,73.9,73.3,29.26,East,90,23.0,23.0,98,0.00,CLR,,0.00,WeatherDisplay:10.37,2013-03-14 12:53:00,
2013-03-14 14:58:00,74.7,74.1,29.26,ESE,112,19.6,19.6,98,0.00,CLR,,0.00,WeatherDisplay:10.37,2013-03-14 12:58:00,
2013-03-14 15:03:00,74.8,74.2,29.26,ESE,112,16.6,16.6,98,0.00,CLR,,0.00,WeatherDisplay:10.37,2013-03-14 13:03:00,
2013-03-14 15:08:00,74.1,73.5,29.25,ESE,112,16.1,17.3,98,0.00,CLR,,0.00,WeatherDisplay:10.37,2013-03-14 13:08:00,
2013-03-14 15:13:00,74.1,73.5,29.25,ENE,68,17.3,17.3,98,0.00,CLR,,0.00,WeatherDisplay:10.37,2013-03-14 13:13:00,
2013-03-14 15:18:00,73.4,72.8,29.78,ESE,112,8.3,-999.0,98,-99.99,,,0.00,Acu-Link.com,2013-03-14 13:18:00,
2013-03-14 15:23:00,74.7,74.1,29.24,East,90,18.1,18.1,98,0.00,CLR,,0.00,WeatherDisplay:10.37,2013-03-14 13:23:00,
2013-03-14 15:28:00,73.9,73.3,29.24,ESE,112,20.7,20.7,98,0.00,CLR,,0.00,WeatherDisplay:10.37,2013-03-14 13:28:00,
2013-03-14 15:33:00,73.4,72.8,29.77,SSE,157,10.3,-999.0,98,-99.99,,,0.00,Acu-Link.com,2013-03-14 13:33:00,
2013-03-14 15:38:00,74.7,74.1,29.24,East,90,15.0,15.0,98,0.00,CLR,,0.00,WeatherDisplay:10.37,2013-03-14 13:38:00,
2013-03-14 15:43:00,74.5,73.9,29.24,ESE,112,17.3,17.3,98,0.00,CLR,,0.00,WeatherDisplay:10.37,2013-03-14 13:43:00,
2013-03-14 15:48:00,73.4,72.8,29.77,SE,135,13.4,-999.0,98,-99.99,,,0.00,Acu-Link.com,2013-03-14 13:48:00,
2013-03-14 15:53:00,74.5,73.9,29.24,ESE,112,11.5,11.5,98,0.00,CLR,,0.00,WeatherDisplay:10.37,2013-03-14 13:53:00,
2013-03-14 15:58:00,73.9,73.3,29.24,ESE,112,17.6,17.6,98,0.00,CLR,,0.00,WeatherDisplay:10.37,2013-03-14 13:58:00,
2013-03-14 16:03:00,73.8,73.2,29.23,ESE,112,16.6,16.6,98,0.00,CLR,,0.00,WeatherDisplay:10.37,2013-03-14 14:03:00,
2013-03-14 16:08:00,73.4,72.8,29.23,ESE,112,21.9,21.9,98,0.00,CLR,,0.00,WeatherDisplay:10.37,2013-03-14 14:08:00,
2013-03-14 16:13:00,73.8,73.2,29.23,ENE,68,20.7,20.7,98,0.00,CLR,,0.00,WeatherDisplay:10.37,2013-03-14 14:13:00,
2013-03-14 16:18:00,73.9,73.3,29.23,ESE,112,16.6,16.6,98,0.00,CLR,,0.00,WeatherDisplay:10.37,2013-03-14 14:18:00,
2013-03-14 16:23:00,74.1,66.8,29.23,NE,45,12.7,12.7,78,0.00,CLR,,0.00,WeatherDisplay:10.37,2013-03-14 14:23:00,
2013-03-14 16:28:00,73.6,73.0,29.22,ESE,112,20.7,20.7,98,0.00,CLR,,0.00,WeatherDisplay:10.37,2013-03-14 14:28:00,
2013-03-14 16:33:00,72.9,72.3,29.22,East,90,24.2,24.2,98,0.00,CLR,,0.00,WeatherDisplay:10.37,2013-03-14 14:33:00,
2013-03-14 16:38:00,73.4,72.8,29.22,ENE,68,19.6,19.6,98,0.00,CLR,,0.00,WeatherDisplay:10.37,2013-03-14 14:38:00,
2013-03-14 16:43:00,72.9,72.3,29.22,ESE,112,20.7,20.7,98,0.00,CLR,,0.00,WeatherDisplay:10.37,2013-03-14 14:43:00,
2013-03-14 16:48:00,73.2,72.6,29.22,ESE,112,15.0,15.0,98,0.00,CLR,,0.00,WeatherDisplay:10.37,2013-03-14 14:48:00,
2013-03-14 16:53:00,72.9,72.3,29.22,ESE,112,21.9,21.9,98,0.00,CLR,,0.00,WeatherDisplay:10.37,2013-03-14 14:53:00,
2013-03-14 16:58:00,71.8,71.2,29.22,ENE,68,20.7,20.7,98,0.00,CLR,,0.00,WeatherDisplay:10.37,2013-03-14 14:58:00,
2013-03-14 17:03:00,73.2,72.6,29.21,ENE,68,16.1,16.1,98,0.00,CLR,,0.00,WeatherDisplay:10.37,2013-03-14 15:03:00,
2013-03-14 17:08:00,73.0,72.4,29.21,ESE,112,20.7,20.7,98,0.00,CLR,,0.00,WeatherDisplay:10.37,2013-03-14 15:08:00,
2013-03-14 17:14:00,72.5,71.9,29.21,East,90,20.7,20.7,98,0.00,CLR,,0.00,WeatherDisplay:10.37,2013-03-14 15:14:00,
2013-03-14 17:19:00,72.5,71.9,29.21,East,90,14.0,14.0,98,0.00,CLR,,0.00,WeatherDisplay:10.37,2013-03-14 15:19:00,
2013-03-14 17:24:00,72.1,71.5,29.21,ESE,112,20.7,20.7,98,0.00,CLR,,0.00,WeatherDisplay:10.37,2013-03-14 15:24:00,
2013-03-14 17:29:00,72.0,71.4,29.21,ESE,112,18.4,18.4,98,0.00,CLR,,0.00,WeatherDisplay:10.37,2013-03-14 15:29:00,
2013-03-14 17:34:00,71.8,71.2,29.21,ESE,112,21.9,21.9,98,0.00,CLR,,0.00,WeatherDisplay:10.37,2013-03-14 15:34:00,
2013-03-14 17:39:00,71.6,71.0,29.21,SE,135,19.6,19.6,98,0.00,CLR,,0.00,WeatherDisplay:10.37,2013-03-14 15:39:00,
2013-03-14 17:44:00,71.2,70.6,29.20,SSE,158,20.7,20.7,98,0.00,CLR,,0.00,WeatherDisplay:10.37,2013-03-14 15:44:00,
2013-03-14 17:49:00,71.2,70.6,29.20,ESE,112,23.0,23.0,98,0.00,CLR,,0.00,WeatherDisplay:10.37,2013-03-14 15:49:00,
2013-03-14 17:54:00,71.1,70.5,29.20,SE,135,21.9,21.9,98,0.00,CLR,,0.00,WeatherDisplay:10.37,2013-03-14 15:54:00,
2013-03-14 17:59:00,70.9,70.3,29.20,East,90,17.3,17.3,98,0.00,CLR,,0.00,WeatherDisplay:10.37,2013-03-14 15:59:00,
2013-03-14 18:04:00,70.9,70.3,29.20,ESE,112,17.3,17.3,98,0.00,CLR,,0.00,WeatherDisplay:10.37,2013-03-14 16:04:00,
2013-03-14 18:09:00,70.3,69.7,29.20,East,90,17.3,17.3,98,0.00,CLR,,0.00,WeatherDisplay:10.37,2013-03-14 16:09:00,
2013-03-14 18:14:00,70.3,69.7,29.20,ESE,112,16.1,16.1,98,0.00,CLR,,0.00,WeatherDisplay:10.37,2013-03-14 16:14:00,
2013-03-14 18:19:00,70.3,69.7,29.20,ESE,112,16.1,16.1,98,0.00,CLR,,0.00,WeatherDisplay:10.37,2013-03-14 16:19:00,
2013-03-14 18:24:00,69.8,69.2,29.20,ESE,112,19.6,19.6,98,0.00,CLR,,0.00,WeatherDisplay:10.37,2013-03-14 16:24:00,
2013-03-14 18:29:00,69.6,69.0,29.20,ESE,112,18.4,18.4,98,0.00,CLR,,0.00,WeatherDisplay:10.37,2013-03-14 16:29:00,
2013-03-14 18:34:00,69.3,68.7,29.20,ESE,112,19.6,19.6,98,0.00,CLR,,0.00,WeatherDisplay:10.37,2013-03-14 16:34:00,
2013-03-14 18:39:00,69.1,68.5,29.20,ESE,112,18.6,18.6,98,0.00,CLR,,0.00,WeatherDisplay:10.37,2013-03-14 16:39:00,
2013-03-14 18:44:00,68.7,68.1,29.20,ESE,112,19.6,19.6,98,0.00,CLR,,0.00,WeatherDisplay:10.37,2013-03-14 16:44:00,
2013-03-14 18:49:00,68.7,68.1,29.20,ESE,112,20.7,20.7,98,0.00,CLR,,0.00,WeatherDisplay:10.37,2013-03-14 16:49:00,
2013-03-14 18:54:00,68.5,67.9,29.19,East,90,16.1,16.1,98,0.00,CLR,,0.00,WeatherDisplay:10.37,2013-03-14 16:54:00,
2013-03-14 18:59:00,68.2,67.6,29.19,ESE,112,21.9,21.9,98,0.00,CLR,,0.00,WeatherDisplay:10.37,2013-03-14 16:59:00,
2013-03-14 19:04:00,68.2,67.6,29.20,ESE,112,16.1,16.1,98,0.00,CLR,,0.00,WeatherDisplay:10.37,2013-03-14 17:04:00,
2013-03-14 19:09:00,68.2,67.6,29.20,NE,45,20.7,20.7,98,0.00,CLR,,0.00,WeatherDisplay:10.37,2013-03-14 17:09:00,
2013-03-14 19:14:00,68.0,67.4,29.20,SE,135,11.4,11.4,98,0.00,CLR,,0.00,WeatherDisplay:10.37,2013-03-14 17:14:00,
2013-03-14 19:19:00,68.0,67.4,29.19,ESE,112,23.0,23.0,98,0.00,CLR,,0.00,WeatherDisplay:10.37,2013-03-14 17:19:00,
2013-03-14 19:24:00,68.0,67.4,29.19,East,90,10.4,10.4,98,0.00,CLR,,0.00,WeatherDisplay:10.37,2013-03-14 17:24:00,
2013-03-14 19:29:00,67.8,67.2,29.19,ESE,112,19.1,19.1,98,0.00,CLR,,0.00,WeatherDisplay:10.37,2013-03-14 17:29:00,
2013-03-14 19:34:00,67.8,67.2,29.19,ESE,112,16.1,16.1,98,0.00,CLR,,0.00,WeatherDisplay:10.37,2013-03-14 17:34:00,
2013-03-14 19:39:00,67.6,67.0,29.20,East,90,19.6,19.6,98,0.00,CLR,,0.00,WeatherDisplay:10.37,2013-03-14 17:39:00,
2013-03-14 19:44:00,67.6,67.0,29.20,ESE,112,13.0,13.0,98,0.00,CLR,,0.00,WeatherDisplay:10.37,2013-03-14 17:44:00,
2013-03-14 19:49:00,67.5,66.9,29.20,ESE,112,18.4,18.4,98,0.00,CLR,,0.00,WeatherDisplay:10.37,2013-03-14 17:49:00,
2013-03-14 19:54:00,67.3,66.7,29.20,ENE,68,17.3,17.3,98,0.00,CLR,,0.00,WeatherDisplay:10.37,2013-03-14 17:54:00,
2013-03-14 19:59:00,67.1,66.5,29.20,ESE,112,13.8,13.8,98,0.00,CLR,,0.00,WeatherDisplay:10.37,2013-03-14 17:59:00,
2013-03-14 20:04:00,66.9,66.3,29.20,ESE,112,19.6,19.6,98,0.00,CLR,,0.00,WeatherDisplay:10.37,2013-03-14 18:04:00,
2013-03-14 20:09:00,66.7,66.1,29.20,East,90,17.3,17.3,98,0.00,CLR,,0.00,WeatherDisplay:10.37,2013-03-14 18:09:00,
2013-03-14 20:14:00,66.6,66.0,29.20,ESE,112,18.1,18.1,98,0.00,CLR,,0.00,WeatherDisplay:10.37,2013-03-14 18:14:00,
2013-03-14 20:19:00,66.6,66.0,29.20,ESE,112,17.3,17.3,98,0.00,CLR,,0.00,WeatherDisplay:10.37,2013-03-14 18:19:00,
2013-03-14 20:24:00,66.4,65.8,29.20,ESE,112,16.0,16.0,98,0.00,CLR,,0.00,WeatherDisplay:10.37,2013-03-14 18:24:00,
2013-03-14 20:29:00,66.4,65.8,29.19,ESE,112,15.0,15.0,98,0.00,CLR,,0.00,WeatherDisplay:10.37,2013-03-14 18:29:00,
2013-03-14 20:34:00,66.4,65.8,29.19,East,90,15.0,15.0,98,0.00,CLR,,0.00,WeatherDisplay:10.37,2013-03-14 18:34:00,
2013-03-14 20:39:00,66.2,65.6,29.19,East,90,13.8,13.8,98,0.00,CLR,,0.00,WeatherDisplay:10.37,2013-03-14 18:39:00,
2013-03-14 20:44:00,66.2,65.6,29.19,SE,135,12.4,12.4,98,0.00,CLR,,0.00,WeatherDisplay:10.37,2013-03-14 18:44:00,
2013-03-14 20:49:00,66.2,65.6,29.19,East,90,10.4,10.4,98,0.00,CLR,,0.00,WeatherDisplay:10.37,2013-03-14 18:49:00,
2013-03-14 20:54:00,66.0,65.4,29.19,ESE,112,11.5,11.5,98,0.00,CLR,,0.00,WeatherDisplay:10.37,2013-03-14 18:54:00,
2013-03-14 20:59:00,65.8,65.2,29.19,SE,135,10.4,10.4,98,0.00,CLR,,0.00,WeatherDisplay:10.37,2013-03-14 18:59:00,
2013-03-14 21:04:00,65.8,65.2,29.19,East,90,7.3,7.3,98,0.00,CLR,,0.00,WeatherDisplay:10.37,2013-03-14 19:04:00,
2013-03-14 21:09:00,65.8,65.2,29.19,ESE,112,13.8,13.8,98,0.00,CLR,,0.00,WeatherDisplay:10.37,2013-03-14 19:09:00,
2013-03-14 21:14:00,65.7,65.1,29.19,East,90,11.5,11.5,98,0.00,CLR,,0.00,WeatherDisplay:10.37,2013-03-14 19:14:00,
2013-03-14 21:19:00,65.7,65.1,29.19,ESE,112,14.0,14.0,98,0.00,CLR,,0.00,WeatherDisplay:10.37,2013-03-14 19:19:00,
2013-03-14 21:24:00,65.7,65.1,29.19,ESE,112,13.5,13.5,98,0.00,CLR,,0.00,WeatherDisplay:10.37,2013-03-14 19:24:00,
2013-03-14 21:29:00,65.5,64.9,29.19,ESE,112,11.5,11.5,98,0.00,CLR,,0.00,WeatherDisplay:10.37,2013-03-14 19:29:00,
2013-03-14 21:34:00,65.1,64.5,29.19,ESE,112,11.5,11.5,98,0.00,CLR,,0.00,WeatherDisplay:10.37,2013-03-14 19:34:00,
2013-03-14 21:39:00,64.9,64.3,29.19,ENE,68,8.1,8.1,98,0.00,CLR,,0.00,WeatherDisplay:10.37,2013-03-14 19:39:00,
2013-03-14 21:44:00,64.8,64.2,29.19,ENE,68,9.2,9.2,98,0.00,CLR,,0.00,WeatherDisplay:10.37,2013-03-14 19:44:00,
2013-03-14 21:49:00,64.6,64.0,29.19,ESE,112,9.2,9.2,98,0.00,CLR,,0.00,WeatherDisplay:10.37,2013-03-14 19:49:00,
2013-03-14 21:54:00,64.4,63.8,29.18,NNE,22,5.8,5.9,98,0.00,CLR,,0.00,WeatherDisplay:10.37,2013-03-14 19:54:00,
2013-03-14 21:59:00,64.2,63.6,29.18,East,90,9.2,9.2,98,0.00,CLR,,0.00,WeatherDisplay:10.37,2013-03-14 19:59:00,
2013-03-14 22:04:00,64.0,63.4,29.18,ESE,112,10.4,10.4,98,0.00,CLR,,0.00,WeatherDisplay:10.37,2013-03-14 20:04:00,
2013-03-14 22:09:00,64.0,63.4,29.18,NNE,22,10.4,10.4,98,0.00,CLR,,0.00,WeatherDisplay:10.37,2013-03-14 20:09:00,
2013-03-14 22:14:00,64.0,63.4,29.18,ENE,68,12.7,12.7,98,0.00,CLR,,0.00,WeatherDisplay:10.37,2013-03-14 20:14:00,
2013-03-14 22:19:00,63.9,63.3,29.18,East,90,5.8,5.8,98,0.00,CLR,,0.00,WeatherDisplay:10.37,2013-03-14 20:19:00,
2013-03-14 22:24:00,63.7,63.1,29.18,ESE,112,8.3,8.8,98,0.00,CLR,,0.00,WeatherDisplay:10.37,2013-03-14 20:24:00,
2013-03-14 22:29:00,63.9,63.3,29.17,ESE,112,10.4,10.4,98,0.00,CLR,,0.00,WeatherDisplay:10.37,2013-03-14 20:29:00,
2013-03-14 22:34:00,63.7,63.1,29.17,ESE,112,6.9,6.9,98,0.00,CLR,,0.00,WeatherDisplay:10.37,2013-03-14 20:34:00,
2013-03-14 22:39:00,63.5,62.9,29.17,SE,135,9.2,9.2,98,0.00,CLR,,0.00,WeatherDisplay:10.37,2013-03-14 20:39:00,
2013-03-14 22:44:00,63.5,62.9,29.17,ESE,112,10.4,10.4,98,0.00,CLR,,0.00,WeatherDisplay:10.37,2013-03-14 20:44:00,
2013-03-14 22:49:00,63.3,62.7,29.17,NNE,22,6.9,6.9,98,0.00,CLR,,0.00,WeatherDisplay:10.37,2013-03-14 20:49:00,
2013-03-14 22:54:00,63.3,62.7,29.16,East,90,10.9,10.9,98,0.00,CLR,,0.00,WeatherDisplay:10.37,2013-03-14 20:54:00,
2013-03-14 22:59:00,63.3,62.7,29.16,ESE,112,8.1,8.3,98,0.00,CLR,,0.00,WeatherDisplay:10.37,2013-03-14 20:59:00,
2013-03-14 23:04:00,63.1,62.5,29.15,ESE,112,11.5,11.5,98,0.00,CLR,,0.00,WeatherDisplay:10.37,2013-03-14 21:04:00,
2013-03-14 23:09:00,63.1,62.5,29.15,NE,45,8.1,8.1,98,0.00,CLR,,0.00,WeatherDisplay:10.37,2013-03-14 21:09:00,
2013-03-14 23:14:00,63.1,62.5,29.15,East,90,9.2,9.2,98,0.00,CLR,,0.00,WeatherDisplay:10.37,2013-03-14 21:14:00,
2013-03-14 23:20:00,63.0,62.4,29.15,East,90,6.9,6.9,98,0.00,CLR,,0.00,WeatherDisplay:10.37,2013-03-14 21:20:00,
2013-03-14 23:25:00,63.0,62.4,29.15,East,90,5.8,5.8,98,0.00,CLR,,0.00,WeatherDisplay:10.37,2013-03-14 21:25:00,
2013-03-14 23:30:00,63.0,62.4,29.14,ESE,112,6.8,6.8,98,0.00,CLR,,0.00,WeatherDisplay:10.37,2013-03-14 21:30:00,
2013-03-14 23:35:00,63.0,62.4,29.14,NE,45,5.8,5.8,98,0.00,CLR,,0.00,WeatherDisplay:10.37,2013-03-14 21:35:00,
2013-03-14 23:40:00,63.0,62.4,29.14,East,90,5.8,5.8,98,0.00,CLR,,0.00,WeatherDisplay:10.37,2013-03-14 21:40:00,
2013-03-14 23:45:00,62.8,62.2,29.14,ENE,68,5.8,5.8,98,0.00,CLR,,0.00,WeatherDisplay:10.37,2013-03-14 21:45:00,
2013-03-14 23:50:00,62.8,62.2,29.14,East,90,4.2,4.2,98,0.00,CLR,,0.00,WeatherDisplay:10.37,2013-03-14 21:50:00,
2013-03-14 23:55:00,62.8,62.2,29.13,North,360,4.6,4.6,98,0.00,CLR,,0.00,WeatherDisplay:10.37,2013-03-14 21:55:00,